When you browse on this site, cookies collect data to enhance your experience and personalize the content and advertising you see.
Visit our Privacy Policy to learn more. By continuing to use the site, you agree to this use of cookies and data.

Hourly Weather Vancouver

Today, 13 August, Thursday

Time Temperature Precipitation Wind Pressure Humidity
00:00 +12°C° 0 mm 2 mps 759 mmHg 82%
01:00 +12°C° 0 mm 2 mps 759 mmHg 83%
02:00 +10°C° 0 mm 2 mps 759 mmHg 83%
03:00 +10°C° 0 mm 2 mps 759 mmHg 84%
04:00 +10°C° 0 mm 2 mps 759 mmHg 85%
05:00 +12°C° 0 mm 2 mps 759 mmHg 80%
06:00 +13°C° 0 mm 2 mps 759 mmHg 75%
07:00 +14°C° 0 mm 1 mps 759 mmHg 70%
08:00 +16°C° 0 mm 2 mps 759 mmHg 65%
09:00 +17°C° 0 mm 2 mps 759 mmHg 60%
10:00 +19°C° 0 mm 2 mps 759 mmHg 55%
11:00 +19°C° 0 mm 2 mps 759 mmHg 55%
12:00 +20°C° 0 mm 2 mps 759 mmHg 54%
13:00 +20°C° 0 mm 2 mps 759 mmHg 54%
14:00 +20°C° 0 mm 2 mps 759 mmHg 54%
15:00 +20°C° 0 mm 2 mps 759 mmHg 53%
16:00 +21°C° 0 mm 2 mps 759 mmHg 53%
17:00 +20°C° 0 mm 1 mps 759 mmHg 59%
18:00 +19°C° 0 mm 1 mps 759 mmHg 66%
19:00 +16°C° 0 mm 1 mps 759 mmHg 73%
20:00 +15°C° 0 mm 1 mps 760 mmHg 76%
21:00 +14°C° 0 mm 1 mps 760 mmHg 79%
22:00 +14°C° 0 mm 1 mps 761 mmHg 82%
23:00 +13°C° 0 mm 1 mps 761 mmHg 83%

Tomorrow, 14 August, Friday

Time Temperature Precipitation Wind Pressure Humidity
00:00 +13°C° 0 mm 2 mps 761 mmHg 83%
01:00 +13°C° 0 mm 2 mps 761 mmHg 84%
02:00 +12°C° 0 mm 1 mps 761 mmHg 85%
03:00 +12°C° 0 mm 1 mps 761 mmHg 85%
04:00 +12°C° 0 mm 1 mps 761 mmHg 86%
05:00 +13°C° 0 mm 1 mps 761 mmHg 80%
06:00 +14°C° 0 mm 1 mps 761 mmHg 75%
07:00 +16°C° 0 mm 1 mps 761 mmHg 70%
08:00 +19°C° 0 mm 1 mps 761 mmHg 64%
09:00 +20°C° 0 mm 1 mps 761 mmHg 59%
10:00 +21°C° 0 mm 2 mps 761 mmHg 53%
11:00 +23°C° 0 mm 2 mps 760 mmHg 52%
12:00 +24°C° 0 mm 2 mps 760 mmHg 51%
13:00 +24°C° 0 mm 2 mps 759 mmHg 50%
14:00 +25°C° 0 mm 2 mps 759 mmHg 49%
15:00 +25°C° 0 mm 1 mps 759 mmHg 49%
16:00 +25°C° 0 mm 1 mps 759 mmHg 49%
17:00 +23°C° 0 mm 1 mps 759 mmHg 57%
18:00 +21°C° 0 mm 1 mps 759 mmHg 65%
19:00 +17°C° 0 mm 0 mps 759 mmHg 74%
20:00 +18°C° 0 mm 1 mps 759 mmHg 77%
21:00 +16°C° 0 mm 1 mps 759 mmHg 79%
22:00 +15°C° 0 mm 1 mps 759 mmHg 82%
23:00 +15°C° 0 mm 1 mps 759 mmHg 84%

Day after tomorrow, 15 August, Saturday

Time Temperature Precipitation Wind Pressure Humidity
00:00 +15°C° 0 mm 1 mps 760 mmHg 85%
01:00 +15°C° 0 mm 2 mps 760 mmHg 86%
02:00 +15°C° 0 mm 1 mps 759 mmHg 86%
03:00 +14°C° 0 mm 1 mps 759 mmHg 86%
04:00 +14°C° 0 mm 1 mps 759 mmHg 87%
05:00 +16°C° 0 mm 1 mps 759 mmHg 81%
06:00 +18°C° 0 mm 1 mps 759 mmHg 76%
07:00 +18°C° 0 mm 0 mps 759 mmHg 71%
08:00 +22°C° 0 mm 1 mps 759 mmHg 64%
09:00 +24°C° 0 mm 1 mps 758 mmHg 57%
10:00 +26°C° 0 mm 2 mps 758 mmHg 50%
11:00 +27°C° 0 mm 2 mps 758 mmHg 48%
12:00 +28°C° 0 mm 2 mps 757 mmHg 46%
13:00 +29°C° 0 mm 3 mps 757 mmHg 43%
14:00 +29°C° 0 mm 2 mps 757 mmHg 43%
15:00 +30°C° 0 mm 2 mps 756 mmHg 44%
16:00 +30°C° 0 mm 2 mps 756 mmHg 44%
17:00 +28°C° 0 mm 2 mps 756 mmHg 52%
18:00 +26°C° 0 mm 2 mps 756 mmHg 60%
19:00 +24°C° 0 mm 2 mps 756 mmHg 69%
20:00 +23°C° 0 mm 2 mps 756 mmHg 71%
21:00 +21°C° 0 mm 2 mps 756 mmHg 73%
22:00 +21°C° 0 mm 2 mps 756 mmHg 75%
23:00 +20°C° 0 mm 2 mps 756 mmHg 73%

16 August, Sunday

Time Temperature Precipitation Wind Pressure Humidity
00:00 +20°C° 0 mm 2 mps 756 mmHg 72%
01:00 +20°C° 0 mm 2 mps 756 mmHg 71%
02:00 +20°C° 0 mm 2 mps 756 mmHg 69%
03:00 +19°C° 0 mm 2 mps 756 mmHg 67%
04:00 +19°C° 0 mm 2 mps 755 mmHg 66%
05:00 +20°C° 0 mm 2 mps 756 mmHg 63%
06:00 +22°C° 0 mm 1 mps 756 mmHg 60%
07:00 +24°C° 0 mm 1 mps 756 mmHg 57%
08:00 +26°C° 0 mm 1 mps 756 mmHg 51%
09:00 +28°C° 0 mm 1 mps 756 mmHg 45%
10:00 +30°C° 0 mm 1 mps 755 mmHg 39%
11:00 +32°C° 0.1 mm 1 mps 755 mmHg 37%
12:00 +35°C° 0.1 mm 2 mps 755 mmHg 35%
13:00 +36°C° 0.1 mm 2 mps 755 mmHg 33%
14:00 +36°C° 0 mm 2 mps 755 mmHg 34%
15:00 +35°C° 0 mm 2 mps 755 mmHg 35%
16:00 +35°C° 0 mm 2 mps 754 mmHg 36%
17:00 +31°C° 0 mm 2 mps 755 mmHg 44%
18:00 +28°C° 0 mm 1 mps 755 mmHg 52%
19:00 +25°C° 0 mm 1 mps 755 mmHg 60%
20:00 +25°C° 0 mm 1 mps 756 mmHg 62%
21:00 +24°C° 0 mm 2 mps 756 mmHg 64%
22:00 +23°C° 0 mm 2 mps 757 mmHg 66%
23:00 +21°C° 0 mm 2 mps 757 mmHg 64%

17 August, Monday

Time Temperature Precipitation Wind Pressure Humidity
00:00 +21°C° 0 mm 2 mps 757 mmHg 63%
01:00 +21°C° 0 mm 2 mps 757 mmHg 62%
02:00 +21°C° 0 mm 2 mps 758 mmHg 64%
03:00 +20°C° 0 mm 2 mps 758 mmHg 65%
04:00 +20°C° 0 mm 2 mps 758 mmHg 67%
05:00 +21°C° 0 mm 2 mps 758 mmHg 66%
06:00 +21°C° 0 mm 2 mps 758 mmHg 65%
07:00 +23°C° 0 mm 2 mps 758 mmHg 64%
08:00 +24°C° 0 mm 2 mps 758 mmHg 60%
09:00 +25°C° 0 mm 2 mps 758 mmHg 56%
10:00 +27°C° 0 mm 2 mps 758 mmHg 52%
11:00 +27°C° 0 mm 2 mps 758 mmHg 52%
12:00 +27°C° 0 mm 2 mps 758 mmHg 51%
13:00 +28°C° 0 mm 2 mps 757 mmHg 50%
14:00 +28°C° 0 mm 2 mps 757 mmHg 48%
15:00 +29°C° 0 mm 2 mps 757 mmHg 47%
16:00 +30°C° 0 mm 2 mps 757 mmHg 45%
17:00 +28°C° 0 mm 2 mps 757 mmHg 55%
18:00 +25°C° 0 mm 2 mps 757 mmHg 64%
19:00 +23°C° 0 mm 2 mps 757 mmHg 74%
20:00 +21°C° 0 mm 2 mps 758 mmHg 76%
21:00 +20°C° 0 mm 2 mps 758 mmHg 78%
22:00 +20°C° 0 mm 2 mps 758 mmHg 80%
23:00 +19°C° 0 mm 2 mps 758 mmHg 81%

18 August, Tuesday

Time Temperature Precipitation Wind Pressure Humidity
00:00 +19°C° 0 mm 2 mps 758 mmHg 82%
01:00 +19°C° 0 mm 2 mps 758 mmHg 83%
02:00 +18°C° 0 mm 2 mps 758 mmHg 84%
03:00 +18°C° 0 mm 2 mps 758 mmHg 85%
04:00 +18°C° 0 mm 2 mps 758 mmHg 87%
05:00 +19°C° 0 mm 2 mps 758 mmHg 82%
06:00 +20°C° 0 mm 2 mps 758 mmHg 78%
07:00 +21°C° 0 mm 2 mps 758 mmHg 74%
08:00 +24°C° 0 mm 2 mps 758 mmHg 66%
09:00 +26°C° 0 mm 1 mps 758 mmHg 58%
10:00 +28°C° 0 mm 1 mps 757 mmHg 51%
11:00 +29°C° 0 mm 1 mps 757 mmHg 48%
12:00 +29°C° 0 mm 2 mps 757 mmHg 45%
13:00 +30°C° 0 mm 2 mps 756 mmHg 42%
14:00 +30°C° 0 mm 2 mps 756 mmHg 42%
15:00 +30°C° 0 mm 2 mps 755 mmHg 41%
16:00 +30°C° 0 mm 2 mps 755 mmHg 40%
17:00 +28°C° 0 mm 1 mps 755 mmHg 49%
18:00 +25°C° 0 mm 1 mps 755 mmHg 58%
19:00 +23°C° 0 mm 1 mps 755 mmHg 67%
20:00 +21°C° 0 mm 2 mps 755 mmHg 67%
21:00 +20°C° 0 mm 2 mps 755 mmHg 67%
22:00 +19°C° 0 mm 2 mps 756 mmHg 67%
23:00 +18°C° 0 mm 3 mps 756 mmHg 69%
Show more